User: anonymous   Login
Location: Go?cza
(50.3372°N, 19.9313°E)
Time: 08:32:48
(UTC+00:00)
Language:

Cosmos 1703 Rocket - Orbit

View from above orbital plane
View from above orbital plane
View from above satellite
View from above satellite

Ground track
Ground track

The orbit data is extracted from the following two-line orbital elements,

1 16263U 85108B   24204.11126157  .00001231  00000-0  14331-3 0  9998
2 16263  82.5019 201.6768 0021258  88.5013 339.5506 14.84349156 88606
Epoch (UTC): 22 July 2024 02:40:13
Eccentricity: 0.0021258
inclination: 82.5019°
perigee height: 601 km
apogee height: 630 km
right ascension of ascending node: 201.6768°
argument of perigee: 88.5013°
revolutions per day: 14.84349156
mean anomaly at epoch: 339.5506°
orbit number at epoch: 8860

The dashed part of the orbit path shows where the satellite is in the earth's shadow,  

DLR